Location: Newark
(41.9000°N, 12.4833°E)
Time: 21:04:42
(UTC+00:00)

EO-88 - Pass Details

Date: 01 June 2019
Orbit: 484 x 494 km, 97.4° (Epoch: 17 June)

Event Time Altitude Azimuth Distance (km) Brightness Sun altitude
Exits shadow 21:53:35 11° 257° (WSW) 1,619 ? -23.7°
Maximum altitude 21:54:17 12° 269° (W) 1,591 ? -23.8°
Drops below altitude 10° 21:55:37 10° 291° (WNW) 1,695 ? -23.8°
Sets 21:58:59 0° 325° (NW) 2,584 ? -24.0°
